Location: Firdgum
(53.2488°N, 5.5615°E)
Time: 19:37:28
(UTC+00:00)

Cosmos 1943 - Pass Details

Date: 08 December 2019
Orbit: 835 x 849 km, 71.0° (Epoch: 22 January)

Event Time Altitude Azimuth Distance (km) Brightness Sun altitude
Exits shadow 06:11:52 16° 302° (WNW) 2,078 4.6 -12.0°
Maximum altitude 06:15:14 27° 256° (WSW) 1,552 4.2 -11.5°
Drops below altitude 10° 06:19:51 10° 200° (SSW) 2,444 5.7 -10.9°
Sets 06:22:36 0° 188° (S) 3,374 6.5 -10.5°
